TURKSAT 4B              
1 40984U 15060A   19261.06523192  .00000111  00000-0  00000+0 0  9996
2 40984   0.0165 250.1656 0002067 281.2242 258.7646  1.00275191 14403
BREEZE-M R/B            
1 40985U 15060B   19259.93688860 -.00000065  00000-0  00000-0 0  9994
2 40985  11.8477 194.7170 4821439 290.3119  25.3623  1.91629678 27426
BREEZE-M DEB [TANK]     
1 40986U 15060C   19259.39054806 -.00000055  00000-0  96700-4 0  9997
2 40986  49.2801 346.7795 6091201 257.2198  32.2692  3.81067809 54484